Regional Weather Roundup
Issued by NWS

Home | Current Version | Previous Version | Text Only | Print | Product List | Glossary Off
Versions: 1 2 3 4 5 6 7 8 9 10 11 12 13 14 15 16 17 18 19 20 21 22 23 24 25 26 27 28 29 30 31 32 33 34 35 36 37 38 39 40 41 42 43 44 45 46 47 48 49 50

000
ASUS43 KMPX 011010
RWRMN
WEATHER ROUNDUP FOR MINNESOTA
NATIONAL WEATHER SERVICE TWIN CITIES/CHANHASSEN MN
400 AM CST SUN MAR 01 2015


NOTE: "FAIR" INDICATES FEW OR NO CLOUDS BELOW 12,000 FEET WITH NO
SIGNIFICANT WEATHER AND/OR OBSTRUCTIONS TO VISIBILITY. N/A MEANS
CURRENT SKY AND/OR WEATHER CONDITIONS ARE NOT AVAILABLE.

MNZ060>063-068>070-011100-
   Twin Cities Metro

CITY           SKY/WX    TMP DP  RH WIND       PRES   REMARKS
TWIN CITIES    MOCLDY    16  10  77 S7        30.24F WCI   6
ST PAUL        PTCLDY    12   9  87 S8        30.26F WCI   0
CRYSTAL        MOCLDY    17  11  77 SW9       30.22F WCI   6
BLAINE         MOCLDY    18  14  86 S9        30.22S WCI   6
LAKEVILLE      PTCLDY    14  10  85 SW6       30.23F WCI   5
EDEN PRAIRIE   MOCLDY    16  10  77 SW13      30.23S WCI   2
SOUTH ST PAUL  PTCLDY    14  10  85 S5        30.25F WCI   6
LAKE ELMO      FAIR      14  10  85 S8        30.24F WCI   3
$$
MNZ001>005-007-008-013>017-022>024-027-028-011100-
   Northwest Minnesota

CITY           SKY/WX    TMP DP  RH WIND       PRES   REMARKS
BEMIDJI        MOCLDY     3  -1  82 SW8       30.11F WCI -10
HALLOCK        CLEAR     -8 -13  77 S9        30.10F WCI -25
ROSEAU         CLEAR      0  -6  78 SW10      30.08S WCI -17
WARROAD        CLEAR      1  -4  78 SW7       30.07S WCI -11
THIEF RVR FALL CLEAR     -6 -20  49 SW6       30.12F WCI -18
CROOKSTON      CLEAR     -6  -9  84 S7        30.17S WCI -20
FOSSTON        PTCLDY    -9 -13  84 S8        30.14S WCI -26
DETROIT LAKES  PTCLDY     3   0  85 CALM      30.16S
MOORHEAD       CLEAR      1   0  92 SW6       30.21S WCI -10
PARK RAPIDS    CLEAR     -2  -5  87 NW6       30.13R WCI -14
MAHNOMEN       FAIR      -8 -12  83 S8        30.15S WCI -24
$$
MNZ006-009>011-018-025>026-011100-
   North Central Minnesota

CITY           SKY/WX    TMP DP  RH WIND       PRES   REMARKS
BAUDETTE       CLEAR      0  -4  83 SW7       30.06F WCI -13
FLAG ISLAND    CLEAR      1  -2  85 SW8       30.04S WCI -12
INTL FALLS     CLOUDY    11   5  77 W8        30.06R WCI  -1
WASKISH        CLOUDY     5   1  85 CALM      30.10S
BIG FORK       LGT SNOW  16  12  86 SW7       30.07S WCI   6
LONGVILLE      MOCLDY    12   7  79 W10G17    30.12R WCI  -1
GRAND RAPIDS   CLOUDY    16  10  79 S9        30.08F WCI   4
CRANE LAKE     LGT SNOW  14   9  79 CALM      30.08F
ORR            FLURRIES  12   7  79 S6        30.03F WCI   3
COOK           CLOUDY    12   9  85 SW3       30.07F
WALKER         FAIR       6   2  83 W12       30.12R WCI -10
$$
MNZ012-019>021-037-011100-
   Northeast Minnesota

CITY           SKY/WX    TMP DP  RH WIND       PRES   REMARKS
DULUTH         LGT SNOW  11   6  81 SW12      30.12F WCI  -3
HIBBING        LGT SNOW  13   8  81 S7        30.09S WCI   3
EVELETH        LGT SNOW  12   9  85 SW6       30.10S WCI   3
DULUTH HARBOR  CLOUDY    16   9  73 SW12      30.21S WCI   3
SILVER BAY       N/A     12   7  79 S3        30.12S
GRAND MARAIS     N/A     16   7  67 W9G17     30.16F WCI   4
G MARAIS ARPRT LGT SNOW   7   1  78 S5        30.05F WCI  -2
$$
MNZ029>031-032-039>041-046>048-054>057-064-011100-
   West Central Minnesota

CITY           SKY/WX    TMP DP  RH WIND       PRES   REMARKS
FERGUS FALLS   CLEAR     -2  -6  84 W6        30.26R WCI -14
MORRIS         CLEAR      3   0  85 W7        30.22S WCI  -9
ALEXANDRIA     PTCLDY     7   2  80 W10       30.18R WCI  -8
ELBOW LAKE     FAIR       2  -1  84 W9        30.21S WCI -12
WADENA         PTCLDY     3   0  85 W7        30.16R WCI  -9
APPLETON       FAIR       7   1  78 NW8       30.24F WCI  -6
BENSON         PTCLDY     9   1  72 N10       30.22F WCI  -6
ORTONVILLE     PTCLDY     9   1  72 W9        30.24S WCI  -5
MADISON        PTCLDY     9   1  72 W7        30.25F WCI  -3
WILLMAR        FAIR      14   7  73 W7        30.22R WCI   4
$$
MNZ033>034-036-042>043-049>051-058-059-011100-
   Central Minnesota

CITY           SKY/WX    TMP DP  RH WIND       PRES   REMARKS
ST CLOUD       CLOUDY    15  11  83 SW7       30.18F WCI   5
SAUK CENTRE    FAIR      11   7  83 W7        30.18S WCI   0
PAYNESVILLE    PTCLDY    11  10  92 SW10      30.18S WCI  -2
PINE RIVER     FLURRIES  12   9  85 W8        30.16R WCI   1
BRAINERD       CLOUDY    14  11  87 S8        30.14F WCI   3
STAPLES        CLEAR      7   1  78 W8        30.16S WCI  -6
LONG PRAIRIE   FAIR      10   5  79 W7        30.17S WCI   0
LITTLE FALLS   CLOUDY    18  12  79 S6        30.17S WCI   9
LITCHFIELD     CLOUDY    16  12  86 W5        30.20S WCI   9
BUFFALO        PTCLDY    14  10  85 S5        30.22S WCI   6
MAPLE LAKE     CLOUDY    16  13  89 S5        30.21S WCI   9
$$
MNZ037-044-045-052-053-011100-
   East Central Minnesota

CITY           SKY/WX    TMP DP  RH WIND       PRES   REMARKS
PRINCETON      CLOUDY    16  12  86 S6        30.19S WCI   7
MORA           PTCLDY    12   9  85 CALM      30.20F
CAMBRIDGE      PTCLDY    16   9  73 S8        30.19S WCI   5
RUSH CITY      MOCLDY    12   8  84 S3        30.21S
MOOSE LAKE     LGT SNOW  12   7  79 CALM      30.16S
HINCKLEY       FLURRIES  12   9  85 S5        30.19F WCI   4
CLOQUET        FLURRIES  10   7  85 SW8       30.14S WCI  -1
MCGREGOR       CLOUDY    14  10  85 S7        30.15S WCI   4
$$
MNZ071>073-080-081-089-090-097-098-011100-
   Southwest Minnesota

CITY           SKY/WX    TMP DP  RH WIND       PRES   REMARKS
MONTEVIDEO     PTCLDY    10   3  72 NW6       30.25R WCI   1
GRANITE FALLS  PTCLDY     9   3  78 W9        30.26S WCI  -5
CANBY          PTCLDY     8   2  76 W8        30.25F WCI  -5
MARSHALL       PTCLDY    10   1  67 NW8       30.25F WCI  -1
REDWOOD FALLS  MOCLDY    16   9  74 NW9       30.23F WCI   4
OLIVIA         MOCLDY    14  10  85 W8        30.23R WCI   3
PIPESTONE      PTCLDY     9   7  92 NW5       30.22S WCI   0
WINDOM         CLOUDY    12  10  92 SW7       30.22F WCI   2
WORTHINGTON    MOCLDY    19   9  63 SW13      30.24R WCI   7
JACKSON        CLEAR     14  12  92 SW15      30.22F WCI  -1
TRACY          FLURRIES  16  12  85 W3        30.23S
SLAYTON        PTCLDY    12   8  85 CALM      30.22S
$$
MNZ065>067-074>077-082>085-091>093-011100-
   South Central Minnesota

CITY           SKY/WX    TMP DP  RH WIND       PRES   REMARKS
MANKATO        PTCLDY    16  10  79 SW10      30.24F WCI   3
NEW ULM        MOCLDY    14  10  85 W9        30.24S WCI   2
ST JAMES       MOCLDY    16  10  79 SW5       30.25S WCI   9
FAIRMONT       CLEAR     10   7  85 SW10      30.23F WCI  -3
GLENCOE        FLURRIES  15  13  91 SW8       30.22S WCI   4
FARIBAULT      PTCLDY    12  10  92 S7        30.25F WCI   2
OWATONNA       PTCLDY    12   9  85 S10       30.24F WCI  -1
WASECA         PTCLDY    12  10  92 S10       30.26F WCI  -1
ALBERT LEA     CLOUDY    12  10  92 SW6       30.26F FOG     WCI   3
$$
MNZ078>079-086>088-094>096-011100-
   Southeast Minnesota

CITY           SKY/WX    TMP DP  RH WIND       PRES   REMARKS
ROCHESTER      PTCLDY     8   5  87 SW12      30.26F FOG     WCI  -7
RED WING       CLOUDY    14   9  79 SE3       30.28F
STANTON        PTCLDY    14   9  83 S8        30.24S WCI   2
DODGE CENTER   LGT SNOW  12  10  92 SW17      30.24F WCI  -5
WINONA         CLOUDY    12   9  85 SE3       30.35R
AUSTIN         CLOUDY     9   7  92 S8        30.27F WCI  -4
PRESTON        PTCLDY     9   6  90 SW7       30.28S WCI  -3
$$
ABBREVIATIONS USED IN REMARKS
   TC - TEMPERATURES IN CELSIUS
  WCI - WIND CHILL INDEX
   HX - HEAT INDEX
  VSB - VISIBILITY
$$



USA.gov is the U.S. government's official web portal to all federal, state and local government web resources and services.